Terminal Aerodrome Forecast
Issued by NWS Chicago, IL

Home | Current Version | Previous Version | Graphics & Text | Print | Product List | Glossary On
Versions: 1 2 3 4 5 6 7 8 9 10 11 12 13 14 15 16 17 18 19 20 21 22 23 24 25 26 27 28 29 30 31 32
000
FTUS43 KLOT 160200 AAA
TAFRFD
TAF AMD
KRFD 160253Z 1603/1624 VRB04KT P6SM FEW100
     FM160800 15008KT P6SM BKN100
     FM161400 17015G25KT P6SM BKN150
     FM161800 17022G33KT P6SM BKN120=

USA.gov is the U.S. government's official web portal to all federal, state and local government web resources and services.